Weather in Abzelilovo

Russia / Republic of Bashkortostan     53°28′03″N   58°39′40″E
temp.,
°C
wind,
m/s
gust,
m/s
humid.,
%
clouds,
%
prec.,
mm/h
press.,
hPa
HPBL,
m
14 august, sun
sun1423:00+16nw227960 0.0 101812
02:00+14nnw22835 0.0 101811
05:00+13n228672 0.0 101911
08:00+16ne1172100 0.0 1020184
11:00+21ene115668 0.0 10191057
14:00+23ene334657 0.0 10181765
17:00+22ene544642 0.0 10181012
20:00+19ene355785 0.0 1019163
15 august, mon
mon1523:00+16nne4854100 0.0 1020268
02:00+11n336865 0.0 102239
05:00+11n2269100 0.0 102216
08:00+15nne23580 0.0 1023200
11:00+19ene21440 0.0 10231118
14:00+21nne22400 0.0 10221798
17:00+22ne23395 0.0 10211705
20:00+18ene11502 0.0 102111
16 august, tue
tue1623:00+14nnw225714 0.0 102211
02:00+12nnw22680 0.0 102314
05:00+12nw22701 0.0 102410
08:00+16nnw11592 0.0 1024129
11:00+21ne11460 0.0 10241136
14:00+23ne24384 0.0 10232124
17:00+24ne333534 0.0 10222109
20:00+20nne334815 0.0 102350
17 august, wed
wed1723:00+14nnw22640 0.0 102417
02:00+13nw22660 0.0 102411
05:00+12nw21713 0.0 102410
08:00+16wnw116156 0.0 1024114
11:00+21wnw234576 0.0 10231379
14:00+24nnw343651 0.0 10222044
17:00+24nw34367 0.0 10202218
20:00+20n345276 0.0 102171
18 august, thu
thu1823:00+15n22690 0.0 102123
02:00+13wnw11740 0.0 102110
05:00+13w22767 0.0 102017
08:00+17wnw236393 0.0 1019119
11:00+23nnw464616 0.0 10181589
14:00+23n5645100 0.0 10171789
17:00+20n586824 1.6 1017604
20:00+13ne7992100 2.6 1020824